Date String (YYYY-MM-DD hh:mm:ss) UTC,Instrument flags,Ambient pressure (hPa),Sample flow (lpm),Bypass flow (lpm),Sample temperature (°C),Ambient temperature (°C),ASC tube jacket temperature (°C),LED temperature (°C),Box temperature (°C),Sample RH (%),Span deviation,Mass concentration (μg/m³),Mass concentration (μg/m³),Mass concentration (μg/m³)
DateTimeUTC,F1_M11,P_M11,Q1_M11,Q2_M11,T1_M11,T2_M11,T3_M11,T4_M11,T5_M11,U1_M11,ZSPAN_M11,X0_M11,X2_M11,X1_M11
2022-09-10 11:00:00,,0831.2,5.01,0.00,28.7,27.0,00.0,37.4,30.5,25.8,0000.0,0006.71,0004.80,0004.69
2022-09-10 11:01:00,,0831.2,5.00,0.00,28.7,27.1,00.0,37.4,30.5,25.7,0000.0,0006.74,0004.81,0004.69
2022-09-10 11:02:00,,0831.2,4.98,0.00,28.7,27.0,00.0,37.4,30.5,25.7,0000.0,0006.88,0004.83,0004.69
2022-09-10 11:03:00,,0831.2,5.00,0.00,28.7,27.0,00.0,37.4,30.5,25.7,0000.0,0006.89,0004.84,0004.70
2022-09-10 11:04:00,,0831.2,5.01,0.00,28.7,27.1,00.0,37.4,30.5,25.7,0000.0,0006.78,0004.80,0004.67
2022-09-10 11:05:00,,0831.2,5.01,0.00,28.7,27.1,00.0,37.4,30.5,25.7,0000.0,0006.64,0004.75,0004.63
2022-09-10 11:06:00,,0831.2,5.00,0.00,28.7,27.1,00.0,37.4,30.5,25.7,0000.0,0006.52,0004.71,0004.60
2022-09-10 11:07:00,,0831.2,5.00,0.00,28.7,27.1,00.0,37.4,30.5,25.7,0000.0,0006.31,0004.67,0004.57
2022-09-10 11:08:00,,0831.2,5.00,0.00,28.7,27.1,00.0,37.4,30.5,25.7,0000.0,0006.33,0004.68,0004.57
2022-09-10 11:09:00,,0831.2,5.00,0.00,28.7,27.1,00.0,37.4,30.5,25.7,0000.0,0006.40,0004.69,0004.57
2022-09-10 11:10:00,,0831.3,5.00,0.00,28.7,27.1,00.0,37.4,30.5,25.7,0000.0,0006.43,0004.69,0004.56
2022-09-10 11:11:00,,0831.3,5.00,0.00,28.7,27.0,00.0,37.4,30.5,25.9,0000.0,0006.37,0004.65,0004.52
2022-09-10 11:12:00,,0831.3,5.01,0.00,28.7,27.0,00.0,37.4,30.5,27.0,0000.0,0006.94,0004.61,0004.50
2022-09-10 11:13:00,,0831.3,4.99,0.00,28.7,27.0,00.0,37.4,30.5,26.2,0000.0,0007.46,0004.59,0004.49
2022-09-10 11:14:00,,0831.3,5.00,0.00,28.6,27.0,00.0,37.4,30.5,25.8,0000.0,0007.44,0004.59,0004.49
2022-09-10 11:15:00,,0831.3,5.00,0.00,28.6,27.0,00.0,37.4,30.5,25.6,0000.0,0007.50,0004.63,0004.52
2022-09-10 11:16:00,,0831.3,5.00,0.00,28.6,27.0,00.0,37.4,30.4,25.4,0000.0,0007.57,0004.68,0004.56
2022-09-10 11:17:00,,0831.3,4.99,0.00,28.6,26.9,00.0,37.4,30.4,25.4,0000.0,0007.70,0004.75,0004.60
2022-09-10 11:18:00,,0831.4,4.99,0.00,28.6,26.9,00.0,37.4,30.4,25.4,0000.0,0007.81,0004.82,0004.65
2022-09-10 11:19:00,,0831.4,5.00,0.00,28.6,26.9,00.0,37.3,30.4,25.4,0000.0,0007.86,0004.86,0004.69
2022-09-10 11:20:00,,0831.5,5.00,0.00,28.6,26.9,00.0,37.3,30.4,25.4,0000.0,0007.87,0004.88,0004.70
2022-09-10 11:21:00,,0831.4,5.00,0.00,28.6,26.9,00.0,37.3,30.4,25.5,0000.0,0007.92,0004.90,0004.71
2022-09-10 11:22:00,,0831.5,5.01,0.00,28.6,26.9,00.0,37.3,30.4,25.4,0000.0,0007.94,0004.91,0004.71
2022-09-10 11:23:00,,0831.5,5.00,0.00,28.6,26.9,00.0,37.3,30.4,25.4,0000.0,0007.53,0004.92,0004.71
2022-09-10 11:24:00,,0831.4,5.00,0.00,28.6,27.0,00.0,37.4,30.4,25.3,0000.0,0007.21,0004.91,0004.71
2022-09-10 11:25:00,,0831.5,5.00,0.00,28.6,26.9,00.0,37.3,30.4,25.3,0000.0,0007.24,0004.90,0004.69
2022-09-10 11:26:00,,0831.4,5.00,0.00,28.6,26.9,00.0,37.3,30.4,25.3,0000.0,0007.27,0004.88,0004.66
2022-09-10 11:27:00,,0831.5,5.00,0.00,28.6,26.9,00.0,37.3,30.4,25.3,0000.0,0007.23,0004.85,0004.63
2022-09-10 11:28:00,,0831.5,4.99,0.00,28.6,26.9,00.0,37.3,30.4,25.3,0000.0,0007.09,0004.79,0004.59
2022-09-10 11:29:00,,0831.5,5.00,0.00,28.6,26.9,00.0,37.3,30.4,25.2,0000.0,0007.00,0004.75,0004.56
2022-09-10 11:30:00,,0831.5,5.00,0.00,28.6,26.9,00.0,37.3,30.4,25.2,0000.0,0007.01,0004.75,0004.55
2022-09-10 11:31:00,,0831.5,5.00,0.00,28.6,26.9,00.0,37.3,30.4,25.2,0000.0,0007.06,0004.76,0004.55
2022-09-10 11:32:00,,0831.5,5.01,0.00,28.5,26.9,00.0,37.3,30.4,25.1,0000.0,0007.02,0004.74,0004.55
2022-09-10 11:33:00,,0831.5,5.01,0.00,28.5,26.9,00.0,37.3,30.4,25.1,0000.0,0007.09,0004.76,0004.56
2022-09-10 11:34:00,,0831.5,5.00,0.00,28.5,26.9,00.0,37.3,30.3,25.1,0000.0,0007.01,0004.76,0004.58
2022-09-10 11:35:00,,0831.5,5.01,0.00,28.5,26.9,00.0,37.3,30.3,25.1,0000.0,0006.97,0004.75,0004.57
2022-09-10 11:36:00,,0831.5,5.00,0.00,28.5,26.9,00.0,37.3,30.3,25.1,0000.0,0007.40,0004.77,0004.58
2022-09-10 11:37:00,,0831.5,4.98,0.00,28.5,26.8,00.0,37.3,30.3,25.1,0000.0,0007.65,0004.77,0004.59
2022-09-10 11:38:00,,0831.5,5.00,0.00,28.5,26.8,00.0,37.3,30.3,25.1,0000.0,0007.66,0004.77,0004.58
2022-09-10 11:39:00,,0831.4,5.01,0.00,28.5,26.9,00.0,37.3,30.4,25.1,0000.0,0007.73,0004.79,0004.59
2022-09-10 11:40:00,,0831.4,5.00,0.00,28.5,26.8,00.0,37.3,30.4,25.1,0000.0,0007.76,0004.81,0004.59
2022-09-10 11:41:00,,0831.4,5.00,0.00,28.5,26.9,00.0,37.3,30.4,25.1,0000.0,0007.79,0004.81,0004.58
2022-09-10 11:42:00,,0831.4,5.00,0.00,28.5,26.9,00.0,37.3,30.3,25.1,0000.0,0007.72,0004.76,0004.56
2022-09-10 11:43:00,,0831.4,5.01,0.00,28.5,26.9,00.0,37.3,30.4,25.2,0000.0,0007.72,0004.76,0004.54
2022-09-10 11:44:00,,0831.4,5.00,0.00,28.5,26.8,00.0,37.3,30.4,25.2,0000.0,0007.69,0004.74,0004.52
2022-09-10 11:45:00,,0831.5,5.01,0.00,28.5,26.9,00.0,37.3,30.3,25.2,0000.0,0007.68,0004.72,0004.49
2022-09-10 11:46:00,,0831.5,5.00,0.00,28.5,26.9,00.0,37.3,30.3,25.2,0000.0,0007.63,0004.69,0004.47
2022-09-10 11:47:00,,0831.5,5.00,0.00,28.5,26.9,00.0,37.3,30.3,25.1,0000.0,0007.17,0004.63,0004.44
2022-09-10 11:48:00,,0831.5,5.00,0.00,28.5,26.9,00.0,37.2,30.3,25.2,0000.0,0006.71,0004.59,0004.40
2022-09-10 11:49:00,,0831.5,5.00,0.00,28.5,26.9,00.0,37.2,30.3,25.2,0000.0,0006.64,0004.56,0004.37
2022-09-10 11:50:00,,0831.5,5.00,0.00,28.5,26.9,00.0,37.3,30.3,25.2,0000.0,0006.42,0004.50,0004.33
2022-09-10 11:51:00,,0831.5,5.00,0.00,28.5,26.9,00.0,37.2,30.3,25.1,0000.0,0006.27,0004.45,0004.31
2022-09-10 11:52:00,,0831.5,5.00,0.00,28.5,26.9,00.0,37.2,30.3,25.1,0000.0,0006.06,0004.40,0004.28
2022-09-10 11:53:00,,0831.5,5.00,0.00,28.5,26.9,00.0,37.2,30.3,25.1,0000.0,0006.03,0004.38,0004.26
2022-09-10 11:54:00,,0831.5,5.00,0.00,28.5,26.9,00.0,37.2,30.3,25.2,0000.0,0006.03,0004.36,0004.23
2022-09-10 11:55:00,,0831.5,5.00,0.00,28.5,26.9,00.0,37.2,30.3,25.6,0000.0,0005.96,0004.32,0004.21
2022-09-10 11:56:00,,0831.5,5.00,0.00,28.5,26.8,00.0,37.2,30.3,26.6,0000.0,0005.98,0004.31,0004.19
2022-09-10 11:57:00,,0831.5,5.00,0.00,28.5,26.8,00.0,37.2,30.3,25.8,0000.0,0006.05,0004.32,0004.19
2022-09-10 11:58:00,,0831.5,5.00,0.00,28.5,26.8,00.0,37.2,30.3,25.4,0000.0,0006.10,0004.33,0004.19
2022-09-10 11:59:00,,0831.6,5.00,0.00,28.5,26.8,00.0,37.2,30.3,25.3,0000.0,0006.05,0004.31,0004.18
